Weather History for Custer, SD

Change the Weather History Date:

Sunday, November 30, 2014

  Actual Average Record
Temperature  
Mean Temperature 9 °F 26 °F  
Max Temperature 21 °F 36 °F 57 °F (1973)
Min Temperature -3 °F 16 °F -7 °F (1975)
Degree Days  
Heating Degree Days 56 39  
Month to date heating degree days 1132 1001  
Since 1 July heating degree days 2088 2181  
Cooling Degree Days 0 0  
Month to date cooling degree days 0 0  
Year to date cooling degree days 152 177  
Moisture  
Dew Point 3 °F    
Average Humidity 66    
Maximum Humidity 92    
Minimum Humidity 39    
Precipitation  
Precipitation 0.02 in 0.02 in 0.42 in (1985)
Month to date precipitation 0.91 0.61  
Year to date precipitation 20.05 18.57  
Sea Level Pressure  
Sea Level Pressure 30.04 in    
Wind  
Wind Speed 5 mph (SW)    
Max Wind Speed 10 mph    
Max Gust Speed 17 mph    
Visibility 8 miles    
Events Snow    
T = Trace of Precipitation, MM = Missing Value Source: NWS Daily Summary

Daily Weather History Graph

Daily Weather History Graph

Search for Another Location

Airport:

Trip Planner

Search our weather history database for the weather conditions in past years. The results will help you decide how hot, cold, wet, or windy it might be!

Date:

Astronomy

Nov. 30, 2014 Rise Set
Actual Time 7:07 AM MST 4:18 PM MST
Civil Twilight 6:35 AM MST 4:51 PM MST
Nautical Twilight 5:59 AM MST 5:26 PM MST
Astronomical Twilight 5:24 AM MST 6:01 PM MST
Moon 1:01 PM MST (11/30) 12:28 AM MST (11/30)
Length of Visible Light 10h 16m
Length of Day
9h 11m
Waxing Gibbous, 65% of the Moon is Illuminated
Nov 30
Waxing Gibbous
Dec 6
Full
Dec 14
Last Quarter
Dec 21
New
Dec 28
First Quarter

Hourly Weather History & Observations

Time (MST) Temp. Windchill Dew Point Humidity Pressure Visibility Wind Dir Wind Speed Gust Speed Precip Events Conditions
12:31 AM 10.9 °F 4.7 °F 8.1 °F 88% 29.64 in 10.0 mi SW 3.5 mph - N/A   Overcast
12:53 AM 10.0 °F 1.8 °F 7.0 °F 87% 29.69 in 10.0 mi South 4.6 mph - N/A   Overcast
1:06 AM 10.0 °F 1.8 °F 7.0 °F 87% 29.65 in 10.0 mi SSW 4.6 mph - N/A   Overcast
1:18 AM 10.0 °F 1.8 °F 7.0 °F 87% 29.65 in 10.0 mi Variable 4.6 mph - N/A   Overcast
1:53 AM 10.0 °F - 7.0 °F 87% 29.71 in 7.0 mi Calm Calm - N/A   Overcast
2:04 AM 10.0 °F 1.8 °F 7.0 °F 87% 29.67 in 9.0 mi SSW 4.6 mph - N/A   Overcast
2:14 AM 10.0 °F 1.8 °F 6.1 °F 84% 29.67 in 10.0 mi SW 4.6 mph - N/A   Overcast
2:53 AM 9.0 °F -4.2 °F 5.0 °F 84% 29.77 in 10.0 mi SW 9.2 mph - N/A   Overcast
3:53 AM 7.0 °F -6.6 °F 3.9 °F 87% 29.81 in 6.0 mi WSW 9.2 mph - 0.00 in Snow Light Snow
4:18 AM 7.0 °F -5.7 °F 3.9 °F 87% 29.76 in 1.8 mi WSW 8.1 mph - 0.00 in Snow Light Snow
4:37 AM 7.0 °F -3.3 °F 3.0 °F 84% 29.76 in 0.8 mi WSW 5.8 mph - 0.01 in Snow Light Snow
4:43 AM 7.0 °F -3.3 °F 3.0 °F 84% 29.76 in 1.0 mi WSW 5.8 mph - 0.01 in Snow Light Snow
4:53 AM 7.0 °F -3.3 °F 3.0 °F 84% 29.85 in 1.5 mi SW 5.8 mph - 0.02 in Snow Light Snow
5:08 AM 7.0 °F -4.5 °F 3.0 °F 84% 29.77 in 3.0 mi WSW 6.9 mph - 0.00 in Snow Light Snow
5:21 AM 7.0 °F -4.5 °F 3.0 °F 84% 29.79 in 5.0 mi SW 6.9 mph - 0.00 in Snow Light Snow
5:42 AM 7.0 °F -1.7 °F 3.0 °F 84% 29.79 in 2.0 mi SSW 4.6 mph - 0.00 in Snow Light Snow
5:53 AM 6.1 °F -4.3 °F 1.9 °F 83% 30.00 in 2.5 mi SSW 5.8 mph - 0.00 in Snow Light Snow
5:56 AM 6.1 °F -2.8 °F 1.0 °F 80% 29.82 in 3.0 mi SW 4.6 mph - 0.00 in Snow Light Snow
6:05 AM 6.1 °F -2.8 °F 1.9 °F 83% 29.84 in 6.0 mi SW 4.6 mph - 0.00 in   Overcast
6:36 AM 6.1 °F -0.9 °F 1.9 °F 83% 29.85 in 10.0 mi Variable 3.5 mph - 0.00 in   Overcast
6:53 AM 5.0 °F -4.1 °F 1.0 °F 84% 30.10 in 9.0 mi South 4.6 mph - 0.00 in   Overcast
7:04 AM 6.1 °F - 1.9 °F 83% 29.88 in 10.0 mi Calm Calm - N/A   Overcast
7:53 AM 7.0 °F -1.7 °F 3.0 °F 84% 30.14 in 10.0 mi SW 4.6 mph - N/A   Overcast
8:53 AM 7.0 °F -3.3 °F 3.0 °F 84% 30.17 in 10.0 mi SW 5.8 mph - N/A   Overcast
9:53 AM 8.1 °F -2.0 °F 3.9 °F 83% 30.20 in 10.0 mi SSW 5.8 mph - N/A   Partly Cloudy
10:25 AM 10.9 °F 2.9 °F 6.1 °F 81% 29.97 in 10.0 mi Variable 4.6 mph - N/A   Partly Cloudy
10:53 AM 12.0 °F 2.7 °F 7.0 °F 80% 30.20 in 10.0 mi WSW 5.8 mph - N/A   Partly Cloudy
11:53 AM 17.1 °F 7.6 °F 10.0 °F 74% 30.18 in 10.0 mi Variable 6.9 mph - N/A   Clear
12:53 PM 19.0 °F 13.9 °F 10.9 °F 71% 30.19 in 10.0 mi Variable 3.5 mph - N/A   Clear
1:53 PM 17.1 °F 6.6 °F 6.1 °F 62% 30.22 in 10.0 mi South 8.1 mph - N/A   Clear
2:53 PM 18.0 °F 9.8 °F 5.0 °F 57% 30.27 in 10.0 mi Variable 5.8 mph - N/A   Clear
3:53 PM 18.0 °F 8.7 °F -4.0 °F 38% 30.32 in 10.0 mi Variable 6.9 mph - N/A   Clear
4:53 PM 7.0 °F 0.1 °F 1.0 °F 77% 30.41 in 10.0 mi South 3.5 mph - N/A   Clear
5:53 PM 5.0 °F -4.1 °F 1.0 °F 84% 30.45 in 10.0 mi South 4.6 mph - N/A   Clear
6:53 PM 3.0 °F -4.4 °F -0.9 °F 84% 30.49 in 10.0 mi North 3.5 mph - N/A   Clear
7:53 PM 3.0 °F - -5.1 °F 69% 30.51 in 10.0 mi Calm Calm - N/A   Clear
8:53 PM -0.0 °F -11.6 °F -2.9 °F 88% 30.56 in 10.0 mi South 5.8 mph - N/A   Clear
9:39 PM -0.9 °F -11.0 °F -4.0 °F 87% 30.26 in 10.0 mi SSW 4.6 mph - N/A   Scattered Clouds
9:53 PM -2.0 °F -10.1 °F -6.0 °F 83% 30.59 in 10.0 mi SSW 3.5 mph - N/A   Partly Cloudy
10:53 PM -2.0 °F -10.1 °F -6.0 °F 83% 30.58 in 10.0 mi WSW 3.5 mph - N/A   Clear
11:53 PM -0.0 °F - -5.1 °F 79% 30.55 in 10.0 mi Calm Calm - N/A   Clear